FW3234 Weather Reports


time (UTC)temp
C
wind
direction
speed
KPH
gust
KPH
rain 1hr
cm
rain 24hr
cm
rain mn
cm
humidity
%
barometer
mb
20210723160143 18 147 9.7 17.7 0.00 0.00 0.00 42 1020.1
20210723154708 17 120 9.7 17.7 0.00 0.00 0.00 43 1020.1
20210723153125 17 139 8.0 14.5 0.00 0.00 0.00 42 1020.2
20210723151557 16 151 6.4 20.9 0.00 0.00 0.00 43 1020.1
20210723150059 17 176 6.4 16.1 0.00 0.00 0.00 42 1020.0
20210723144602 16 143 3.2 12.9 0.00 0.00 0.00 43 1019.6
20210723143105 16 162 1.6 8.0 0.00 0.00 0.00 43 1019.4
20210723141637 15 129 0.0 8.0 0.00 0.00 0.00 44 1019.3
20210723140038 14 353 0.0 1.6 0.00 0.00 0.00 45 1019.2
20210723134610 12 304 0.0 3.2 0.00 0.00 0.00 47 1019.0
20210723133016 11 51 0.0 4.8 0.00 0.00 0.00 50 1018.9
20210723131517 11 155 0.0 4.8 0.00 0.00 0.00 50 1019.0
20210723130021 11 188 1.6 4.8 0.00 0.00 0.00 50 1018.7
20210723124521 10 122 0.0 4.8 0.00 0.00 0.00 53 1018.6
20210723123009 9 129 0.0 1.6 0.00 0.00 0.00 55 1018.6
20210723121513 9 199 0.0 0.0 0.00 0.00 0.00 54 1018.5
20210723120014 9 200 0.0 0.0 0.00 0.00 0.00 55 1018.5
20210723114524 9 200 0.0 0.0 0.00 0.00 0.00 56 1018.4
20210723113009 9 200 0.0 0.0 0.00 0.00 0.00 55 1018.3
20210723111504 8 200 0.0 0.0 0.00 0.00 0.00 57 1018.1
20210723110005 8 200 0.0 0.0 0.00 0.00 0.00 58 1018.1
20210723103213 7 200 0.0 0.0 0.00 0.00 0.00 60 1017.8
20210723101710 7 200 0.0 0.0 0.00 0.00 0.00 61 1017.7
20210723100123 7 200 0.0 0.0 0.00 0.00 0.00 61 1017.5
20210723094648 7 200 0.0 0.0 0.00 0.00 0.00 61 1017.5
20210723093106 8 200 0.0 0.0 0.00 0.00 0.00 59 1017.4
20210723091637 8 200 0.0 0.0 0.00 0.00 0.00 60 1017.4
20210723090134 8 200 0.0 0.0 0.00 0.00 0.00 61 1017.4
20210723084634 8 200 0.0 0.0 0.00 0.00 0.00 60 1017.3
20210723083102 8 200 0.0 0.0 0.00 0.00 0.00 59 1017.3
20210723081611 9 200 0.0 0.0 0.00 0.00 0.00 56 1017.2
20210723080148 10 200 0.0 0.0 0.00 0.00 0.00 54 1017.2
20210723074645 10 200 0.0 0.0 0.00 0.00 0.00 52 1017.1
20210723073052 10 200 0.0 0.0 0.00 0.00 0.00 52 1016.9
20210723071620 10 200 0.0 0.0 0.00 0.00 0.00 54 1017.1
20210723070124 11 200 0.0 0.0 0.00 0.00 0.00 50 1016.8
20210723064627 11 200 0.0 0.0 0.00 0.00 0.00 51 1016.8
20210723063033 11 200 0.0 0.0 0.00 0.00 0.00 48 1016.8
20210723061636 11 200 0.0 0.0 0.00 0.00 0.00 50 1016.8
20210723060058 12 200 0.0 0.0 0.00 0.00 0.00 47 1016.8
20210723054527 12 200 0.0 0.0 0.00 0.00 0.00 50 1016.8
20210723053204 12 200 0.0 0.0 0.00 0.00 0.00 48 1016.7
20210723051545 13 200 0.0 0.0 0.00 0.00 0.00 44 1016.6
20210723050046 13 200 0.0 0.0 0.00 0.00 0.00 48 1016.5
20210723044617 13 200 0.0 0.0 0.00 0.00 0.00 45 1016.3
20210723043106 14 200 0.0 0.0 0.00 0.00 0.00 47 1016.2
20210723041625 15 200 0.0 0.0 0.00 0.00 0.00 42 1016.0
20210723040034 16 200 0.0 0.0 0.00 0.00 0.00 41 1015.8
20210723034529 17 200 0.0 0.0 0.00 0.00 0.00 36 1015.7
20210723033025 18 200 0.0 0.0 0.00 0.00 0.00 36 1015.5
20210723031601 20 200 0.0 0.0 0.00 0.00 0.00 31 1015.3
20210723030049 21 200 0.0 0.0 0.00 0.00 0.00 28 1015.3
20210723024541 22 200 0.0 0.0 0.00 0.00 0.00 27 1015.3
20210723023103 22 200 0.0 0.0 0.00 0.00 0.00 25 1015.2
20210723021613 23 200 0.0 1.6 0.00 0.00 0.00 24 1015.2
20210723020105 23 207 0.0 3.2 0.00 0.00 0.00 24 1015.2
20210723014527 24 205 0.0 0.0 0.00 0.00 0.00 22 1015.2
20210723013115 25 214 0.0 4.8 0.00 0.00 0.00 22 1015.2
20210723011523 25 295 1.6 6.4 0.00 0.00 0.00 21 1015.3
20210723010038 26 224 0.0 0.0 0.00 0.00 0.00 20 1015.4
20210723004548 26 44 1.6 3.2 0.00 0.00 0.00 21 1015.4
20210723003013 27 120 0.0 3.2 0.00 0.00 0.00 21 1015.4
20210723001511 26 335 0.0 9.7 0.00 0.00 0.00 20 1015.5
20210723000038 27 212 0.0 4.8 0.00 0.00 0.00 22 1015.5
20210722234512 26 174 3.2 9.7 0.00 0.00 0.00 24 1015.7
20210722233009 27 257 0.0 14.5 0.00 0.00 0.00 21 1015.8
20210722231533 27 176 0.0 6.4 0.00 0.00 0.00 22 1016.1
20210722230021 27 256 1.6 6.4 0.00 0.00 0.00 22 1016.2
20210722224507 26 135 3.2 14.5 0.00 0.00 0.00 23 1016.2
20210722223003 27 144 0.0 4.8 0.00 0.00 0.00 22 1016.4
20210722221505 26 152 0.0 6.4 0.00 0.00 0.00 23 1016.5
20210722220153 26 280 3.2 12.9 0.00 0.00 0.00 24 1016.4
20210722214650 26 218 0.0 11.3 0.00 0.00 0.00 22 1016.5
20210722213140 26 330 1.6 6.4 0.00 0.00 0.00 25 1016.5
20210722211707 25 160 1.6 11.3 0.00 0.00 0.00 25 1016.5
20210722210154 25 146 0.0 9.7 0.00 0.00 0.00 26 1016.6
20210722204647 25 188 0.0 11.3 0.00 0.00 0.00 26 1016.6
20210722203128 25 140 1.6 9.7 0.00 0.00 0.00 27 1016.7
20210722201715 25 123 1.6 9.7 0.00 0.00 0.00 27 1016.8
20210722200225 24 138 6.4 11.3 0.00 0.00 0.00 29 1016.9
20210722194621 24 294 1.6 8.0 0.00 0.00 0.00 27 1017.0
20210722193103 24 307 1.6 8.0 0.00 0.00 0.00 29 1017.0
20210722191657 23 250 1.6 9.7 0.00 0.00 0.00 33 1017.1
20210722190115 23 247 1.6 9.7 0.00 0.00 0.00 34 1017.3
20210722184610 23 48 0.0 4.8 0.00 0.00 0.00 33 1017.3
20210722183109 22 231 1.6 4.8 0.00 0.00 0.00 35 1017.5
20210722181543 21 322 0.0 12.9 0.00 0.00 0.00 37 1017.5
20210722180148 21 297 1.6 11.3 0.00 0.00 0.00 37 1017.6
20210722174658 21 42 0.0 8.0 0.00 0.00 0.00 41 1017.6
20210722173037 20 208 1.6 11.3 0.00 0.00 0.00 43 1017.6
20210722171551 20 266 3.2 12.9 0.00 0.00 0.00 43 1017.6
20210722170131 18 179 0.0 9.7 0.00 0.00 0.00 44 1017.6
20210722164603 17 150 0.0 16.1 0.00 0.00 0.00 51 1017.5
20210722163027 17 186 4.8 16.1 0.00 0.00 0.00 48 1017.7
20210722161547 16 136 3.2 14.5 0.00 0.00 0.00 52 1017.8